Hourly Data Report for September 09, 2010

PETERBOROUGH AWOS
ONTARIO

44°14'00.000" N
78°22'00.000" W
191.40 m
6166420

Download Data

Hourly Data (September 2010)
Hourly Data Report for September 9, 2010
TIME
LST
Temp Definition
°C
Dew Point Definition
°C
Rel Hum Definition
%
Precip. Amount Definition
mm

Wind Dir Definition
10's deg

Wind Spd Definition
km/h
Visibility Definition
km
Stn Press Definition
kPa
Hmdx Definition


Wind Chill Definition


Weather Definition


00:00 13.4 10.9 85   LegendMM LegendMM 15.0 98.74      
01:00 12.5 10.6 88   LegendMM LegendMM 15.0 98.73      
02:00 11.7 9.9 89   LegendMM LegendMM 15.0 98.72      
03:00 11.2 9.7 90   LegendMM LegendMM 15.0 98.70      
04:00 11.7 9.5 86   LegendMM LegendMM 15.0 98.71      
05:00 11.7 9.3 85   LegendMM LegendMM 15.0 98.75      
06:00 12.2 9.4 83   LegendMM LegendMM 15.0 98.76      
07:00 12.9 9.9 82   LegendMM LegendMM 15.0 98.76      
08:00 13.9 9.9 77   LegendMM LegendMM 15.0 98.77      
09:00 15.3 10.8 75   LegendMM LegendMM 15.0 98.79      
10:00 15.6 10.2 70   LegendMM LegendMM 15.0 98.83      
11:00 15.3 10.7 74   LegendMM LegendMM 15.0 98.85      
12:00 15.7 10.8 73   LegendMM LegendMM 15.0 98.86      
13:00 16.1 10.9 71   LegendMM LegendMM 15.0 98.86      
14:00 17.1 11.3 69   LegendMM LegendMM 15.0 98.84      
15:00 16.8 10.9 68   LegendMM LegendMM 15.0 98.85      
16:00 16.6 10.8 69   LegendMM LegendMM 15.0 98.86      
17:00 15.8 11.5 76   LegendMM LegendMM 15.0 98.89      
18:00 14.8 11.6 81   LegendMM LegendMM 15.0 98.95     Rain
19:00 13.9 12.0 88   LegendMM LegendMM 15.0 99.00      
20:00 14.2 12.0 87   LegendMM LegendMM 15.0 99.03      
21:00 14.3 11.4 83   LegendMM LegendMM 15.0 99.03      
22:00 13.5 11.8 89   LegendMM LegendMM 15.0 99.06      
23:00 13.6 11.6 88   LegendMM LegendMM 15.0 99.06      

Notes on Data Quality.

Legend

  • E = Estimated
  • M = Missing
  • NA = Not Available*
  • [empty] = Indicates an unobserved value
Date modified: